Location: Altleiningen
(49.5078°N, 8.0741°E)
Time: 05:01:31
(UTC+00:00)

Helios 1A Rocket - Pass Details

Date: 03 March 2021
Orbit: 563 x 585 km, 98.3° (Epoch: 11 April)

Event Time Altitude Azimuth Distance (km) Brightness Sun altitude
Rises 17:39:21 0° 140° (SE) 2,769 6.0 -4.9°
Reaches altitude 10° 17:41:38 10° 131° (SE) 1,872 5.1 -5.3°
Maximum altitude 17:45:16 33° 67° (ENE) 970 3.6 -5.9°
Drops below altitude 10° 17:48:55 10° 3° (N) 1,875 5.5 -6.5°
Sets 17:51:11 0° 354° (N) 2,775 6.5 -6.9°
